Find Starlink 33596

NORAD ID: 62758 Int'l Des: 2025-015 Owner: SPXS Country: US Constellation: starlink operational
LEOCIRCULAR

リアルタイム位置

3D地球を読み込み中...

Starlink 33596について

説明を読み込み中...

次回通過

Passes for default location (London). Set your location on the main map for personalized predictions.

高度履歴

Loading altitude history...

軌道要素

1 62758U 25015A 26127.16667823 .00051666 00000-0 16654-2 0 9996
2 62758 53.1609 50.9938 0001320 91.5167 211.6390 15.31695749 5752
Epoch: May 7, 2026 • Age: 5 hours

現在のステータス

高度 473.6 km
速度 7.63 km/s
衛星直下点 40.56°N, 177.32°W
打ち上げ日 Jan 21, 2025
運用期間 1.2 years
タイプ internet

技術仕様

分類 Payload
質量 575.00 kg
乾燥質量 530.00 kg
総質量 575.00 kg
長さ 0.30 m
直径 4.10 m
スパン 29.00 m
形状 Box + pan
製造者 SPXS
バスタイプ Starlink V2MO
フェーズステータス In Orbit
所有者/国 SPXS/US

Most Searched